sat.trackr.live / text

‹ back to catalog

STARLINK-32947

NORAD 63121 · 2025-039T

PAYLOAD ACTIVE UNKNOWN

§ Identity

Operator
Country
US
Launch date
2025-02-27
Launch site
AFETR
Launch vehicle
Mass (kg)
RCS (m²)

Purposes: comms

External: N2YO · Heavens-Above · Gunter

§ Orbital elements

Epoch: 2026-05-25T03:11:48.697728Z

Period
94.27 min
Inclination
43.0025°
Eccentricity
0.0001029
Mean motion
15.27581838 rev/d
Perigee alt
482.3 km
Apogee alt
483.7 km
Semi-major
6,861.2 km
B*
4.8878e-4
RAAN
300.5665°
Arg perigee
277.1956°
Mean anomaly
82.8779°
Rev number
6,976

§ Raw data

STARLINK-329471 63121U 25039T   26145.13320252  .00013213  00000+0  48878-3 0  99952 63121  43.0025 300.5665 0001029 277.1956  82.8779 15.27581838 69760

JSON: /api/v1/satellites/63121 · /tle

For live sub-satellite position, see the globe view (requires WebGL).

§ Visibility from observer

Set your observer location to see the next 7 days of passes ≥ 10°. The values pass through the URL so the page stays shareable.

No JS? Fill the form by hand. The geolocation button needs JavaScript.